Regional Weather Roundup
Issued by NWS

Home | Current Version | Previous Version | Graphics & Text | Print | Product List | Glossary On
Versions: 1 2 3 4 5 6 7 8 9 10 11 12 13 14 15 16 17 18 19 20 21 22 23 24 25 26 27 28 29 30 31 32 33 34 35 36 37 38 39 40 41 42 43 44 45 46 47 48 49 50
000
ASUS43 KIND 301309
RWRIN

WEATHER ROUNDUP FOR INDIANA
NATIONAL WEATHER SERVICE INDIANAPOLIS IN
900 AM EDT TUE SEP 30 2014

NOTE: "FAIR" INDICATES FEW OR NO CLOUDS BELOW 12,000 FEET WITH NO
SIGNIFICANT WEATHER AND/OR OBSTRUCTIONS TO VISIBILITY.

* - STATION DOES NOT REPORT WEATHER SUCH AS PRECIPITATION OR FOG.

+ - STATION NOT QUALITY CONTROLLED BY THE NATIONAL WEATHER SERVICE.
    USE DATA WITH CAUTION...ESPECIALLY DEWPOINT AND RELATIVE
    HUMIDITY OBSERVATIONS.

INZ001>003-010>013-019-020-301400-
NORTHWEST INDIANA

CITY           SKY/WX    TMP DP  RH WIND       PRES   REMARKS
GARY /AIRPORT/ CLOUDY    55  50  82 N12G23    30.04
KNOX *+        CLOUDY    52  47  84 N9        30.01R
LA PORTE +     CLOUDY    53  53  99 N10       30.02S FOG
MICHIGAN CITY+ CLOUDY    52  46  82 N10       30.02S
MONTICELLO +   CLOUDY    53  50  87 N6        30.00S
RENSSELAER +   CLOUDY    54  52  94 N9        30.03R
VALPARAISO     CLOUDY    54  47  77 N8G17     30.02S

$$

LMZ046-743>745-301400-
SOUTHERN LAKE MICHIGAN

STATION/POSITION TIME  TEMP WIND        PRES
                       AIR  DIR/SP/G
                 (UTC) (F)  (DEG/KT/KT) (MB)
MICHIGAN CITY    1300   53  360/ 23/ 26   N/A

$$

INZ004-005-014>016-021>024-301400-
NORTH CENTRAL INDIANA

CITY           SKY/WX    TMP DP  RH WIND       PRES   REMARKS
LOGANSPORT +   CLOUDY    52  46  82 N10       30.01R
PERU/GRISSOM   CLOUDY    54  54 100 NW10      29.99S
ROCHESTER +    CLOUDY    54  48  82 N8        30.01S
SOUTH BEND     NOT AVBL
WARSAW +       CLOUDY    48  45  87 N9        30.01R

$$

INZ006>009-017-018-025>027-301400-
NORTHEAST INDIANA

CITY           SKY/WX    TMP DP  RH WIND       PRES   REMARKS
ANGOLA *+      CLOUDY    46  46 100 N7        29.99S
AUBURN +       CLOUDY    50  45  81 NW10G16   30.00R
FORT WAYNE     CLOUDY    52  50  93 N10       29.99R
HUNTINGTON +   CLOUDY    52  51  95 N6        29.98S

$$

INZ028-029-035-036-043>045-051>053-301400-
WEST CENTRAL INDIANA

CITY           SKY/WX    TMP DP  RH WIND       PRES   REMARKS
GREENCASTLE +  CLOUDY    55  55 100 N6        29.99R FOG
LAFAYETTE      CLOUDY    54  50  86 N8        30.00S
TERRE HAUTE    CLOUDY    58  56  93 N7        29.98R FOG

$$

INZ030>032-037>040-046>048-054>057-064-065-301400-
CENTRAL INDIANA

CITY           SKY/WX    TMP DP  RH WIND       PRES   REMARKS
ANDERSON       CLOUDY    57  55  94 NW12      29.99
CP ATTERBURY + FOG       55  54  94 CALM      29.98R VSB 3/4
COLUMBUS       FOG       57  57 100 N9        29.97S VSB 1/2
FRANKFORT +    CLOUDY    55  55 100 N9        30.00S
INDIANAPOLIS   CLOUDY    58  55  90 N9        29.98R
-EAGLE CREEK   CLOUDY    57  54  89 N9        29.97S
KOKOMO *+      CLOUDY    54  48  82 N9        29.99S
MARION +       CLOUDY    54  50  86 N9        29.99R
MT COMFORT *+  CLOUDY    57 N/A N/A N7        29.98S
SHELBYVILLE    CLOUDY    60  58  92 N9        29.96S FOG
ZIONSVILLE +   CLOUDY    55  52  88 N9        29.99R

$$

INZ033-034-041-042-049-050-058-059-301400-
EAST CENTRAL INDIANA

CITY           SKY/WX    TMP DP  RH WIND       PRES   REMARKS
MUNCIE         CLOUDY    58  55  90 NW6       29.97R

$$

INZ060-061-067>069-081>083-085>088-301400-
SOUTHWEST INDIANA

CITY           SKY/WX    TMP DP  RH WIND       PRES   REMARKS
EVANSVILLE     SUNNY     61  56  83 CALM      29.96S
WASHINGTON +   SUNNY     56  56  97 CALM      29.95S

$$

INZ062-063-066-070>080-084-089>092-301400-
SOUTH CENTRAL AND SOUTHEAST INDIANA

CITY           SKY/WX    TMP DP  RH WIND       PRES   REMARKS
BLOOMINGTON    SUNNY     59  56  89 N7        29.97R
NORTH VERNON + SUNNY     55  55 100 CALM      29.97
SEYMOUR +      SUNNY     57  57 100 CALM      29.96S

$$



USA.gov is the U.S. government's official web portal to all federal, state and local government web resources and services.